Regional Weather Roundup
Issued by NWS

Home | Current Version | Previous Version | Text Only | Print | Product List | Glossary Off
Versions: 1 2 3 4 5 6 7 8 9 10 11 12 13 14 15 16 17 18 19 20 21 22 23 24 25 26 27 28 29 30 31 32 33 34 35 36 37 38 39 40 41 42 43 44 45 46 47 48 49 50

000
ASUS43 KLOT 260304
RWRIL

ILLINOIS REGIONAL WEATHER ROUNDUP
NATIONAL WEATHER SERVICE CHICAGO/ROMEOVILLE IL
1000 PM CDT FRI MAY 25 2018

NOTE: "FAIR" INDICATES FEW OR NO CLOUDS BELOW 12,000 FEET WITH NO
SIGNIFICANT WEATHER AND/OR OBSTRUCTIONS TO VISIBILITY.

* THESE STATIONS ARE NOT UNDER NWS QUALITY CONTROL. THEY ALSO MAY NOT
  REPORT WEATHER SUCH AS PRECIPITATION OR FOG.

ILZ001-002-007-009-015-016-024-260400-
NORTHWEST ILLINOIS

CITY           SKY/WX    TMP DP  RH WIND       PRES   REMARKS
MOLINE         FAIR      74  68  81 CALM      29.81R
STERLING*        N/A    N/A N/A N/A MISG        N/A
SAVANNA*       HVY RAIN  68  61  79 NW20G30   29.85R
$$

ILZ003-004-008-010-011-017-018-260400-
NORTH CENTRAL ILLINOIS

CITY           SKY/WX    TMP DP  RH WIND       PRES   REMARKS
ROCKFORD       FAIR      70  65  84 SW6       29.81R
FREEPORT*      FAIR      69  65  85 SW8       29.82R
ROCHELLE*      FAIR      71  65  83 SW7       29.83R
DE KALB*       FAIR      73  64  73 W9        29.83R
PERU*          FAIR      75  70  85 S7        29.83R
$$

ILZ005-006-012>014-019>023-260400-
NORTHEAST ILLINOIS

CITY           SKY/WX    TMP DP  RH WIND       PRES   REMARKS
CHICAGO-OHARE  CLOUDY    79  64  60 W5        29.78S HX  81
CHICAGO-MIDWAY LGT RAIN  78  65  63 W3        29.78R HX  80
AURORA         MOCLDY    74  66  76 SW9       29.81R
LANSING*       CLOUDY    74  65  74 S3        29.80R
JOLIET*        CLOUDY    77  68  73 SW5       29.82R
WAUKEGAN       MOCLDY    75  65  70 CALM      29.78R
DUPAGE AIRPORT MOCLDY    74  67  78 SW6       29.80R
KANKAKEE*      DRIZZLE   71  67  85 W10       29.86R
WHEELING       MOCLDY    80  65  59 W3        29.80R HX  82
MORRIS*        CLOUDY    74  67  78 SW8       29.81S
NORTHERLY ISL    N/A     78  60  53 W3          N/A
$$

LMZ740>746-260400-
SOUTHERN LAKE MICHIGAN

STATION/POSITION SKY/WX   TEMP    WIND        PRES    VSBY  WAVE
                          AIR SEA DIR/SP/G                  HT/PER
                          (F)     (DEG/KT/KT) (MB)    (MI)  (FT/S)
SOUTHERN BUOY              54 39  230/  6/  8 1008.6R         0
WILMETTE HARBOR            69 56  270/  4/  4   N/A           1
HARRISON CRIB              80     300/  5/  6   N/A
BURNHAM HARBOR             78      CALM  /  9   N/A
CALUMET HARBOR             79     260/  2/  5 1008.2R
BURNS HARBOR               70     230/  8/  9 1009.5R
MICHIGAN CITY              74     220/ 21/ 21   N/A
MICHIGAN CITY 6N           68 63  250/ 10/ 12   N/A           0
ST. JOSEPH                 71 63  180/  6/  6 1008.1R         0
$$

ILZ025>027-034>036-040-047-049-050-058-095>099-260400-
WEST-CENTRAL ILLINOIS

CITY           SKY/WX    TMP DP  RH WIND       PRES   REMARKS
QUINCY         PTCLDY    71  65  81 SE5       29.82R
GALESBURG*     FAIR      69  66  89 S3        29.84R
MACOMB*        CLEAR     68  68  99 SE3       29.84R
JACKSONVILLE*  CLOUDY    70  68  94 S3        29.84R
PITTSFIELD*    PTCLDY    71  70  95 CALM      29.85R
$$

ILZ028>032-037-038-041>044-048-051>054-059>061-260400-
CENTRAL ILLINOIS

CITY           SKY/WX    TMP DP  RH WIND       PRES   REMARKS
PONTIAC        LGT RAIN  71  71  99 SE5       29.85S
BLOOMINGTON    LGT RAIN  69  67  93 SE7       29.85R
DECATUR        FAIR      70  68  93 E6        29.84R
PEORIA         FAIR      68  67  96 NW3       29.83R FOG
LACON*         FAIR      70  68  95 CALM      29.82S
LINCOLN*       CLOUDY    71  71  99 SE6       29.83R
SPRINGFIELD    LGT RAIN  71  71 100 S5        29.84R
TAYLORVILLE    CLOUDY    71  68  89 E5        29.85R
$$

ILZ033-039-045-046-055>057-062-063-260400-
EAST-CENTRAL ILLINOIS

CITY           SKY/WX    TMP DP  RH WIND       PRES   REMARKS
CHAMPAIGN      FAIR      70  68  93 E3        29.84R
DANVILLE*      RAIN      72  68  89 W6        29.82R
RANTOUL*       LGT RAIN  71  69  95 CALM      29.83F
MATTOON        FAIR      72  67  84 S5        29.85R
PARIS*         CLOUDY    76  65  67 SW13      29.87R
$$

ILZ079-100>102-260400-
SOUTHWEST ILLINOIS

CITY           SKY/WX    TMP DP  RH WIND       PRES   REMARKS
ALTON          CLOUDY    75  70  83 SW7       29.83R
BELLEVILLE     CLOUDY    73  67  81 SW5       29.82R
CAHOKIA*       CLOUDY    76  65  68 MISG      29.83R
SPARTA*        PTCLDY    71  70  98 S7        29.86S
$$

ILZ064>066-069>071-074>076-080>082-084>086-088>090-092>094-260400-
SOUTH-CENTRAL ILLINOIS

CITY           SKY/WX    TMP DP  RH WIND       PRES   REMARKS
CARBONDALE     FAIR      69  67  93 S5        29.85S
CAIRO*         FAIR      71  68  91 S5        29.86F
EFFINGHAM*     FAIR      70  67  92 SE5       29.88R
MARION         FAIR      67  67  99 CALM      29.87S
MT. VERNON     FAIR      69  68  96 S6        29.86R
CENTRALIA*     PTCLDY    70  69  96 SE3       29.85R
SALEM*         FAIR      72  68  88 S5        29.86R
METROPOLIS*    FAIR      69  68  97 CALM      29.88F FOG
$$

ILZ067-068-072-073-078-083-087-091-260400-
SOUTHEAST ILLINOIS

CITY           SKY/WX    TMP DP  RH WIND       PRES   REMARKS
LAWRENCEVILLE  FAIR      76  66  71 S10       29.86R
FLORA*         FAIR      71  69  93 S6        29.86R
FAIRFIELD*     FAIR      70  69  98 CALM      29.86R
HARRISBURG*    FAIR      69  68  97 S3        29.88R
ROBINSON*      FAIR      72  64  77 SW3       29.86R
CARMI*         FAIR      71  67  89 CALM      29.86S
$$

ABBREVIATIONS USED IN REMARKS
   TC - TEMPERATURE IN CELSIUS
  WCI - WIND CHILL INDEX
   HX - HEAT INDEX
  VSB - VISIBILITY
$$





USA.gov is the U.S. government's official web portal to all federal, state and local government web resources and services.